Location: Garbet
(42.8837°N, 1.2115°E)
Time: 08:02:27
(UTC+00:00)

Cosmos 1953 Rocket - Pass Details

Date: 15 March 2026
Orbit: 599 x 626 km, 82.5° (Epoch: 18 April)

Event Time Altitude Azimuth Distance (km) Brightness Sun altitude
Rises 05:19:19 0° 1° (N) 2,885 7.1 -9.6°
Reaches altitude 10° 05:21:45 10° 12° (NNE) 1,981 6.4 -9.2°
Maximum altitude 05:25:40 31° 75° (ENE) 1,090 5.8 -8.5°
Drops below altitude 10° 05:29:34 10° 138° (SE) 1,981 6.7 -7.8°
Sets 05:32:00 0° 149° (SSE) 2,886 7.4 -7.3°
